Regional Weather Roundup
Issued by NWS

Home | Current Version | Previous Version | Graphics & Text | Print | Product List | Glossary Off
Versions: 1 2 3 4 5 6 7 8 9 10 11 12 13 14 15 16 17 18 19 20 21 22 23 24 25 26 27 28 29 30 31 32 33 34 35 36 37 38 39 40 41 42 43 44 45 46 47 48 49 50

000
ASUS43 KTOP 291108
RWRKS

WEATHER ROUNDUP FOR KANSAS
NATIONAL WEATHER SERVICE GOODLAND KS
600 AM CDT MON AUG 29 2016

NOTE:  "FAIR" INDICATES FEW OR NO CLOUDS BELOW 12,000 FEET WITH NO
SIGNIFICANT WEATHER AND/OR OBSTRUCTIONS TO VISIBILITY.

KSZ001>006-013>018-027>032-041>047-291200-
NORTHWEST KANSAS

CITY           SKY/WX    TMP DP  RH WIND       PRES   REMARKS
GOODLAND       PTCLDY    61  59  93 S6        30.17S
HAYS           CLOUDY    66  59  77 CALM      30.16S
HILL CITY      CLOUDY    67  66  97 E3        30.16F
RUSSELL        MOCLDY    67  65  93 E3        30.13F
$$

KSZ061>065-074>080-084>089-291200-
SOUTHWEST KANSAS

CITY           SKY/WX    TMP DP  RH WIND       PRES   REMARKS
DODGE CITY     CLOUDY    66  65  96 SE6       30.18R FOG
ELKHART          N/A     64  59  84 W6          N/A
GARDEN CITY    CLOUDY    65  62  90 E7        30.16S
GREAT BEND     CLOUDY    66  61  82 CALM      30.14S
LIBERAL        CLOUDY    66  63  88 CALM      30.18S
PRATT          CLOUDY    66  64  93 CALM      30.14F
$$

KSZ066>073-081>083-090>101-291200-
SOUTHEAST KANSAS

CITY           SKY/WX    TMP DP  RH WIND       PRES   REMARKS
CHANUTE        CLEAR     69  67  93 CALM      30.12R
COFFEYVILLE    CLEAR     69  68  96 CALM      30.11R
HUTCHINSON     CLEAR     70  67  90 CALM      30.13S
MEDICINE LODGE   N/A     68  66  93 N3        30.12S
NEWTON         CLEAR     68  68 100 SE5       30.14R FOG
PARSONS        CLEAR     69  68  96 CALM      30.13R
WICHITA INTL   MOCLDY    72  68  87 CALM      30.12S
WICHITA JABRA  CLEAR     68  68 100 CALM      30.12S FOG
WICHITA MCCONL CLEAR     72  69  88 SE5       30.12S
WINFIELD       CLEAR     72  67  84 E3        30.13S
$$

KSZ007>012-019>026-033>040-048>060-102>105-291200-
NORTHEAST KANSAS

CITY           SKY/WX    TMP DP  RH WIND       PRES   REMARKS
CONCORDIA      PTCLDY    66  64  93 S3        30.13R
EMPORIA        CLEAR     68  67  96 CALM      30.13S
LAWRENCE       PTCLDY    69  68  96 CALM      30.13S
MANHATTAN      CLOUDY    71  69  93 CALM      30.12R
MARYSVILLE     MOCLDY    68  68 100 E3        30.13R
OLATHE IND     CLEAR     70  69  97 S3        30.14S
OLATHE EXE     CLEAR     70  69  97 CALM      30.14S
SALINA         CLEAR     73  70  90 NE3       30.12F
TOPEKA BILLARD CLEAR     70  67  90 SE3       30.12F
TOPEKA FORBES  CLEAR     70  67  90 CALM      30.12F
$$



USA.gov is the U.S. government's official web portal to all federal, state and local government web resources and services.